20050422,000023,637056,33.493588,-117.749460,4.1,17.884,33.263,43.747,1926.75,0.0,4.351,17.172,17.140, NaN,23.970,   NaN,16.22,1014.14,81.39,16.55,30.7,31.0,3.9,4.1,310.5,310.6,4.0,4.2,NaN, NaN,19.9,184.6,203.8,1114128024,1114128024,1,0.4,000023,000024,276.0,33.493528,-117.749306,0.18,NaN,NaN,17.888, NaN,NaN,NaN, NaN, NaN
20050422,000054,637087,33.493536,-117.749515,4.3,17.890,33.260,43.750,1923.56,0.0,4.464,17.172,17.136, NaN,23.967,   NaN,16.25,1014.06,81.31,16.55,32.7,32.1,3.8,3.8,311.3,310.7,3.9,4.0,NaN, NaN,19.5,184.6,268.3,1114128054,1114128054,1,0.3,000053,000054,271.8,33.493491,-117.749360,0.31,NaN,NaN,17.894, NaN,NaN,NaN, NaN, NaN
20050422,000123,637116,33.493488,-117.749591,4.3,17.894,33.258,43.751,1924.82,0.0,4.521,17.172,17.137, NaN,23.964,   NaN,16.28,1014.08,81.27,16.57,33.4,34.4,3.8,3.8,309.0,310.0,3.9,3.8,NaN, NaN,19.4,237.2,252.5,1114128084,1114128083,1,0.5,000083,000083,265.6,33.493443,-117.749431,0.52,NaN,NaN,17.898, NaN,NaN,NaN, NaN, NaN
20050422,000153,637146,33.493418,-117.749703,4.4,17.898,33.257,43.754,1927.76,0.0,4.332,17.173,17.138, NaN,23.962,   NaN,16.30,1014.10,81.09,16.63,38.6,39.3,3.8,3.8,310.4,311.1,3.7,3.7,NaN, NaN,19.8,231.3,237.3,1114128114,1114128113,1,0.8,000113,000113,262.1,33.493381,-117.749538,0.69,NaN,NaN,17.902, NaN,NaN,NaN, NaN, NaN
20050422,000223,637176,33.493338,-117.749830,4.3,17.897,33.262,43.758,1930.26,0.0,4.483,17.174,17.139, NaN,23.966,   NaN,16.25,1014.10,80.85,16.59,42.6,43.6,3.7,3.7,312.4,313.6,3.6,3.6,NaN, NaN,19.4,245.1,232.9,1114128144,1114128144,1,1.3,000143,000144,261.5,33.493290,-117.749673,0.80,NaN,NaN,17.901, NaN,NaN,NaN, NaN, NaN
20050422,000254,637207,33.493250,-117.749965,4.4,17.897,33.265,43.762,1922.96,0.0,4.257,17.178,17.144, NaN,23.969,   NaN,16.30,1014.09,80.97,16.62,41.4,42.9,3.6,3.5,311.2,313.2,3.5,3.4,NaN, NaN,20.0,245.2,235.0,1114128174,1114128174,1,1.3,000173,000174,264.1,33.493196,-117.749805,0.90,NaN,NaN,17.901, NaN,NaN,NaN, NaN, NaN
20050422,000323,637236,33.493170,-117.750108,4.4,17.896,33.269,43.765,1912.37,0.0,4.125,17.181,17.147, NaN,23.972,   NaN,16.29,1014.06,80.84,16.66,37.2,40.5,3.8,3.8,309.1,312.5,3.6,3.6,NaN, NaN,19.8,226.6,234.4,1114128204,1114128203,1,1.3,000203,000203,268.1,33.493115,-117.749951,0.93,NaN,NaN,17.900, NaN,NaN,NaN, NaN, NaN
20050422,000353,637266,33.493111,-117.750260,4.2,17.898,33.269,43.767,1914.00,0.0,4.068,17.187,17.154, NaN,23.972,   NaN,16.26,1014.09,80.81,16.62,38.7,38.1,3.6,3.8,314.7,313.7,3.5,3.6,NaN, NaN,19.4,291.6,249.3,1114128234,1114128234,1,0.8,000233,000234,271.3,33.493040,-117.750105,0.87,NaN,NaN,17.902, NaN,NaN,NaN, NaN, NaN
20050422,000423,637296,33.493040,-117.750356,4.4,17.900,33.269,43.770,1898.57,0.0,4.238,17.189,17.155, NaN,23.971,   NaN,16.35,1014.05,81.06,16.68,37.1,36.6,3.3,3.5,316.2,315.0,3.2,3.4,NaN, NaN,20.1,226.3,268.0,1114128264,1114128264,1,0.5,000263,000264,271.6,33.492976,-117.750201,0.54,NaN,NaN,17.904, NaN,NaN,NaN, NaN, NaN
20050422,000453,637326,33.492988,-117.750421,4.4,17.904,33.269,43.773,1900.61,0.0,4.332,17.191,17.153, NaN,23.970,   NaN,16.32,1014.01,80.79,16.68,35.6,34.6,3.2,3.3,314.5,312.9,3.1,3.3,NaN, NaN,19.6,231.6,232.1,1114128294,1114128293,1,0.4,000293,000293,271.5,33.492923,-117.750265,0.34,NaN,NaN,17.908, NaN,NaN,NaN, NaN, NaN
20050422,000523,637356,33.492923,-117.750465,4.4,17.907,33.266,43.773,1896.66,0.0,4.483,17.187,17.155, NaN,23.967,   NaN,16.41,1014.07,81.22,16.72,35.8,34.5,3.3,3.3,312.4,311.1,3.3,3.3,NaN, NaN,19.5,214.3,201.5,1114128324,1114128323,1,0.4,000323,000323,268.8,33.492865,-117.750308,0.27,NaN,NaN,17.911, NaN,NaN,NaN, NaN, NaN
20050422,000553,637386,33.492851,-117.750535,4.2,17.911,33.265,43.776,1898.40,0.0,4.559,17.186,17.153, NaN,23.965,   NaN,16.34,1014.01,80.73,16.72,37.9,40.9,3.5,3.5,311.4,314.5,3.6,3.5,NaN, NaN,19.2,214.3,225.6,1114128354,1114128353,1,0.8,000353,000353,262.8,33.492806,-117.750371,0.50,NaN,NaN,17.915, NaN,NaN,NaN, NaN, NaN
20050422,000623,637416,33.492755,-117.750700,4.3,17.914,33.265,43.778,1906.12,0.0,4.502,17.185,17.150, NaN,23.964,   NaN,16.27,1014.08,80.68,16.64,40.7,45.1,3.7,3.5,312.2,317.0,3.7,3.5,NaN, NaN,19.3,241.8,240.6,1114128384,1114128384,1,1.7,000383,000384,263.8,33.492713,-117.750548,1.27,NaN,NaN,17.918, NaN,NaN,NaN, NaN, NaN
20050422,000654,637447,33.492671,-117.750970,4.4,17.914,33.265,43.779,1897.77,0.0,4.144,17.198,17.165, NaN,23.965,   NaN,16.28,1014.08,80.90,16.64,41.2,41.5,3.7,3.6,316.9,317.3,3.4,3.3,NaN, NaN,19.3,251.9,254.3,1114128414,1114128414,1,2.1,000413,000414,268.0,33.492620,-117.750830,1.75,NaN,NaN,17.918, NaN,NaN,NaN, NaN, NaN
20050422,000723,637476,33.492608,-117.751251,4.5,17.914,33.267,43.781,1895.24,0.0,4.144,17.212,17.177, NaN,23.966,   NaN,16.36,1014.03,81.07,16.71,38.3,38.6,3.7,3.8,318.5,318.3,3.2,3.3,NaN, NaN,19.3,238.9,253.0,1114128444,1114128443,1,1.8,000443,000443,268.5,33.492560,-117.751101,1.60,NaN,NaN,17.918, NaN,NaN,NaN, NaN, NaN
20050422,000753,637506,33.492553,-117.751515,4.3,17.916,33.270,43.785,1890.97,0.0,4.238,17.214,17.179, NaN,23.968,   NaN,16.35,1014.03,81.00,16.73,33.9,35.7,3.9,4.0,313.0,314.7,3.4,3.5,NaN, NaN,19.2,238.4,251.6,1114128474,1114128473,1,1.7,000473,000473,267.8,33.492505,-117.751360,1.54,NaN,NaN,17.920, NaN,NaN,NaN, NaN, NaN
20050422,000823,637536,33.492495,-117.751761,4.5,17.920,33.267,43.786,1892.04,0.0,4.125,17.217,17.179, NaN,23.965,   NaN,16.27,1014.01,80.82,16.69,33.3,33.5,4.1,4.2,310.4,310.6,3.6,3.6,NaN, NaN,19.5,269.9,261.0,1114128504,1114128503,1,1.4,000503,000503,266.5,33.492446,-117.751608,1.48,NaN,NaN,17.924, NaN,NaN,NaN, NaN, NaN
20050422,000853,637566,33.492428,-117.752000,4.3,17.927,33.264,43.789,1892.23,0.0,4.049,17.214,17.179, NaN,23.960,   NaN,16.24,1013.98,80.81,16.64,35.6,36.6,4.0,4.1,311.9,312.6,3.6,3.7,NaN, NaN,19.2,247.9,255.1,1114128534,1114128533,1,1.4,000533,000533,265.3,33.492385,-117.751850,1.44,NaN,NaN,17.931, NaN,NaN,NaN, NaN, NaN
20050422,000923,637596,33.492355,-117.752235,4.4,17.939,33.255,43.790,1888.17,0.0,3.691,17.209,17.174, NaN,23.951,   NaN,16.22,1013.97,80.78,16.61,38.6,40.1,3.8,3.9,314.7,316.0,3.4,3.5,NaN, NaN,19.0,242.7,241.8,1114128564,1114128563,1,1.4,000563,000563,265.5,33.492311,-117.752078,1.40,NaN,NaN,17.943, NaN,NaN,NaN, NaN, NaN
20050422,000953,637626,33.492286,-117.752463,4.2,17.948,33.250,43.793,1883.01,0.0,3.521,17.202,17.170, NaN,23.945,   NaN,16.29,1013.95,80.93,16.64,40.0,38.9,3.8,4.0,316.3,314.6,3.4,3.6,NaN, NaN,19.3,251.8,248.8,1114128594,1114128593,1,1.1,000593,000593,267.3,33.492240,-117.752305,1.38,NaN,NaN,17.952, NaN,NaN,NaN, NaN, NaN
20050422,001023,637656,33.492221,-117.752685,4.3,17.950,33.252,43.797,1880.60,0.0,3.521,17.189,17.155, NaN,23.946,   NaN,16.31,1013.93,81.05,16.68,37.1,36.9,3.8,4.0,314.0,313.5,3.4,3.6,NaN, NaN,18.6,250.2,250.9,1114128624,1114128623,1,1.4,000623,000623,268.3,33.492173,-117.752526,1.34,NaN,NaN,17.954, NaN,NaN,NaN, NaN, NaN
20050422,001053,637686,33.492155,-117.752903,4.5,17.952,33.255,43.803,1880.35,0.0,3.558,17.183,17.148, NaN,23.948,   NaN,16.31,1013.94,81.06,16.71,35.3,38.1,3.8,3.8,313.1,316.2,3.4,3.4,NaN, NaN,19.1,253.8,249.5,1114128654,1114128653,1,1.4,000653,000653,268.0,33.492103,-117.752751,1.34,NaN,NaN,17.956, NaN,NaN,NaN, NaN, NaN
20050422,001123,637716,33.492093,-117.753120,4.4,17.948,33.263,43.808,1879.51,0.0,3.407,17.176,17.140, NaN,23.955,   NaN,16.24,1013.92,80.98,16.67,39.6,44.0,3.7,3.5,317.5,322.9,3.4,3.2,NaN, NaN,18.9,246.1,255.0,1114128684,1114128683,1,1.6,000683,000683,266.3,33.492045,-117.752963,1.27,NaN,NaN,17.952, NaN,NaN,NaN, NaN, NaN
20050422,001153,637746,33.492008,-117.753331,4.4,17.944,33.269,43.812,1877.08,0.0,3.540,17.169,17.134, NaN,23.960,   NaN,16.21,1013.86,80.98,16.64,43.3,48.6,3.7,3.4,320.3,327.0,3.4,3.2,NaN, NaN,19.1,259.1,258.9,1114128714,1114128714,1,1.1,000713,000714,265.6,33.491961,-117.753180,1.31,NaN,NaN,17.948, NaN,NaN,NaN, NaN, NaN
20050422,001224,637777,33.491933,-117.753541,4.2,17.933,33.280,43.814,1874.27,0.0,3.407,17.158,17.121, NaN,23.971,   NaN,16.25,1013.90,81.10,16.64,44.8,50.5,3.7,3.5,321.6,328.4,3.5,3.3,NaN, NaN,18.7,261.1,248.0,1114128745,1114128744,1,1.4,000744,000744,267.1,33.491878,-117.753386,1.27,NaN,NaN,17.937, NaN,NaN,NaN, NaN, NaN
20050422,001254,637807,33.491863,-117.753753,4.3,17.921,33.291,43.816,1872.23,0.0,3.388,17.150,17.112, NaN,23.983,   NaN,16.26,1013.86,81.18,16.66,44.1,48.2,3.6,3.5,322.0,326.9,3.4,3.3,NaN, NaN,19.5,259.7,254.3,1114128775,1114128774,1,1.4,000774,000774,269.0,33.491800,-117.753596,1.27,NaN,NaN,17.925, NaN,NaN,NaN, NaN, NaN
20050422,001323,637836,33.491808,-117.753961,4.4,17.906,33.303,43.815,1864.44,0.0,3.388,17.147,17.110, NaN,23.996,   NaN,16.27,1013.85,81.04,16.69,39.8,41.7,3.6,3.5,318.7,321.2,3.3,3.2,NaN, NaN,19.2,237.7,256.9,1114128804,1114128803,1,1.6,000803,000803,268.0,33.491741,-117.753803,1.27,NaN,NaN,17.910, NaN,NaN,NaN, NaN, NaN
20050422,001353,637866,33.491743,-117.754238,4.4,17.902,33.305,43.813,1868.38,0.0,3.275,17.142,17.103, NaN,23.998,   NaN,16.24,1013.85,80.94,16.63,37.8,38.8,3.9,3.7,316.1,317.6,3.4,3.3,NaN, NaN,19.2,245.3,257.6,1114128834,1114128833,1,1.9,000833,000833,266.1,33.491683,-117.754080,1.75,NaN,NaN,17.906, NaN,NaN,NaN, NaN, NaN
20050422,001424,637897,33.491671,-117.754570,4.4,17.889,33.310,43.807,1861.15,0.0,3.086,17.134,17.096, NaN,24.005,   NaN,16.22,1013.83,80.86,16.60,38.6,39.7,4.1,3.9,317.4,319.2,3.5,3.4,NaN, NaN,19.6,247.6,250.0,1114128865,1114128864,1,2.2,000864,000864,267.5,33.491606,-117.754411,1.94,NaN,NaN,17.893, NaN,NaN,NaN, NaN, NaN
20050422,001454,637927,33.491608,-117.754913,4.4,17.887,33.307,43.803,1856.65,0.0,2.992,17.125,17.087, NaN,24.004,   NaN,16.23,1013.84,80.86,16.59,39.3,40.4,4.1,4.0,320.1,321.7,3.5,3.4,NaN, NaN,19.7,254.3,257.3,1114128894,1114128894,1,2.5,000893,000894,267.3,33.491540,-117.754768,2.14,NaN,NaN,17.891, NaN,NaN,NaN, NaN, NaN
20050422,001524,637957,33.491538,-117.755281,4.4,17.882,33.307,43.796,1857.12,0.0,2.822,17.109,17.071, NaN,24.004,   NaN,16.20,1013.84,80.56,16.58,40.1,41.0,4.0,4.0,322.8,324.1,3.4,3.3,NaN, NaN,19.9,267.1,265.9,1114128924,1114128924,1,2.2,000923,000924,267.6,33.491476,-117.755143,2.24,NaN,NaN,17.886, NaN,NaN,NaN, NaN, NaN
20050422,001553,637986,33.491485,-117.755645,4.3,17.871,33.311,43.791,1863.37,0.0,2.784,17.085,17.047, NaN,24.010,   NaN,16.29,1013.86,80.85,16.61,37.3,36.7,4.0,4.1,319.3,318.6,3.3,3.4,NaN, NaN,20.2,261.9,261.0,1114128954,1114128954,1,1.8,000953,000954,267.5,33.491421,-117.755496,2.03,NaN,NaN,17.875, NaN,NaN,NaN, NaN, NaN
20050422,001623,638016,33.491431,-117.755850,4.4,17.861,33.314,43.785,1850.89,0.0,2.690,17.057,17.016, NaN,24.015,   NaN,16.32,1013.84,80.76,16.66,33.4,33.8,3.9,4.0,311.6,311.9,3.3,3.4,NaN, NaN,19.9,247.7,249.9,1114128984,1114128983,1,0.8,000983,000983,268.8,33.491368,-117.755690,1.02,NaN,NaN,17.865, NaN,NaN,NaN, NaN, NaN
20050422,001653,638046,33.491376,-117.755928,4.4,17.854,33.313,43.778,1841.47,0.0,2.633,17.031,16.992, NaN,24.016,   NaN,16.32,1013.88,80.59,16.68,34.2,38.6,3.6,3.7,309.7,314.1,3.3,3.4,NaN, NaN,20.3,239.6,228.1,1114129014,1114129013,1,0.7,001013,001013,268.3,33.491310,-117.755770,0.40,NaN,NaN,17.858, NaN,NaN,NaN, NaN, NaN
20050422,001724,638077,33.491323,-117.756090,4.1,17.837,33.321,43.771,1847.02,0.0,2.596,17.008,16.969, NaN,24.026,   NaN,16.27,1013.84,80.43,16.63,36.4,39.7,3.6,3.6,310.4,313.9,3.4,3.4,NaN, NaN,19.9,238.7,258.0,1114129045,1114129044,1,1.4,001044,001044,265.1,33.491275,-117.755928,1.17,NaN,NaN,17.841, NaN,NaN,NaN, NaN, NaN
20050422,001754,638107,33.491258,-117.756360,4.4,17.834,33.318,43.763,1842.56,0.0,2.596,16.985,16.946, NaN,24.024,   NaN,16.24,1013.88,80.25,16.59,33.4,33.1,4.0,4.0,307.7,307.3,3.6,3.6,NaN, NaN,19.9,246.3,250.6,1114129075,1114129074,1,1.8,001074,001074,267.0,33.491211,-117.756198,1.83,NaN,NaN,17.838, NaN,NaN,NaN, NaN, NaN
20050422,001824,638137,33.491208,-117.756703,4.5,17.799,33.341,43.757,1839.63,0.0,2.501,16.963,16.922, NaN,24.050,   NaN,16.26,1013.80,80.19,16.57,31.2,30.3,4.3,4.4,307.9,306.6,3.6,3.7,NaN, NaN,19.9,265.0,271.4,1114129105,1114129104,1,2.0,001104,001104,267.5,33.491158,-117.756545,2.18,NaN,NaN,17.803, NaN,NaN,NaN, NaN, NaN
20050422,001854,638167,33.491143,-117.757103,4.4,17.773,33.356,43.750,1834.80,0.0,2.237,16.937,16.898, NaN,24.068,   NaN,16.25,1013.81,80.05,16.59,30.5,29.9,4.5,4.7,308.9,307.7,3.6,3.8,NaN, NaN,20.2,287.9,264.7,1114129135,1114129134,1,2.3,001134,001134,266.5,33.491101,-117.756936,2.39,NaN,NaN,17.777, NaN,NaN,NaN, NaN, NaN
20050422,001924,638197,33.491085,-117.757513,4.3,17.738,33.375,43.737,1832.88,0.0,2.218,16.921,16.882, NaN,24.091,   NaN,16.24,1013.82,79.93,16.59,31.0,30.4,4.5,4.8,310.2,308.7,3.6,3.9,NaN, NaN,20.0,261.3,261.6,1114129165,1114129164,1,2.4,001164,001164,267.5,33.491036,-117.757345,2.53,NaN,NaN,17.742, NaN,NaN,NaN, NaN, NaN
20050422,001954,638227,33.491046,-117.757935,4.3,17.706,33.390,43.725,1835.01,0.0,2.162,16.911,16.872, NaN,24.111,   NaN,16.30,1013.83,80.24,16.65,31.7,31.9,4.6,4.8,311.4,311.3,3.6,3.8,NaN, NaN,17.8,267.8,265.8,1114129194,1114129194,1,2.6,001193,001194,267.1,33.490990,-117.757780,2.62,NaN,NaN,17.710, NaN,NaN,NaN, NaN, NaN
20050422,002024,638257,33.490993,-117.758373,4.3,17.685,33.392,43.707,1827.23,0.0,2.256,16.893,16.854, NaN,24.117,   NaN,16.26,1013.81,80.02,16.66,31.9,32.9,4.6,4.8,312.2,312.9,3.6,3.8,NaN, NaN,19.5,256.7,260.6,1114129224,1114129224,1,2.8,001223,001224,266.8,33.490940,-117.758230,2.72,NaN,NaN,17.689, NaN,NaN,NaN, NaN, NaN
20050422,002054,638287,33.490950,-117.758816,4.4,17.674,33.386,43.690,1830.41,0.0,2.256,16.877,16.837, NaN,24.115,   NaN,16.22,1013.87,80.01,16.62,31.1,31.9,4.6,4.8,312.4,312.6,3.6,3.8,NaN, NaN,19.1,268.4,261.4,1114129254,1114129254,1,3.0,001253,001254,275.9,33.490873,-117.758688,2.70,NaN,NaN,17.678, NaN,NaN,NaN, NaN, NaN
20050422,002124,638317,33.490976,-117.759241,4.3,17.647,33.392,43.670,1816.95,0.0,2.086,16.858,16.818, NaN,24.126,   NaN,16.27,1013.81,80.04,16.63,24.2,26.1,4.6,4.9,310.7,312.4,3.5,3.8,NaN, NaN,19.2,272.3,282.1,1114129285,1114129284,1,2.6,001284,001284,284.0,33.490885,-117.759101,2.41,NaN,NaN,17.651, NaN,NaN,NaN, NaN, NaN
20050422,002154,638347,33.491040,-117.759603,4.4,17.638,33.380,43.648,1821.81,0.0,2.067,16.848,16.807, NaN,24.120,   NaN,16.28,1013.82,79.83,16.58,19.4,21.3,4.4,4.7,311.6,313.3,3.4,3.7,NaN, NaN,19.6,296.9,287.3,1114129315,1114129315,1,1.8,001314,001315,287.1,33.490945,-117.759478,2.00,NaN,NaN,17.642, NaN,NaN,NaN, NaN, NaN
20050422,002224,638377,33.491095,-117.759861,4.4,17.629,33.370,43.628,1812.68,0.0,1.992,16.848,16.808, NaN,24.113,   NaN,16.36,1013.79,79.86,16.66,19.9,21.3,4.2,4.5,314.1,315.3,3.3,3.7,NaN, NaN,19.6,286.9,284.8,1114129345,1114129344,1,1.4,001344,001344,291.0,33.490996,-117.759733,1.48,NaN,NaN,17.633, NaN,NaN,NaN, NaN, NaN
20050422,002254,638407,33.491151,-117.760060,4.4,17.612,33.368,43.609,1811.76,0.0,1.935,16.856,16.819, NaN,24.116,   NaN,16.40,1013.82,79.78,16.66,17.5,19.4,3.9,4.2,313.0,314.8,3.2,3.5,NaN, NaN,19.2,291.7,297.7,1114129375,1114129375,1,1.6,001374,001375,291.4,33.491051,-117.759940,1.22,NaN,NaN,17.616, NaN,NaN,NaN, NaN, NaN
20050422,002324,638437,33.491258,-117.760456,4.4,17.596,33.366,43.591,1812.48,0.0,1.822,16.861,16.824, NaN,24.119,   NaN,16.50,1013.79,79.88,16.73,15.6,17.9,4.2,4.5,309.1,311.8,3.3,3.6,NaN, NaN,19.3,286.1,278.8,1114129405,1114129404,1,3.6,001404,001404,282.0,33.491178,-117.760321,2.88,NaN,NaN,17.600, NaN,NaN,NaN, NaN, NaN
20050422,002355,638468,33.491380,-117.761155,4.4,17.580,33.364,43.574,1808.42,0.0,1.878,16.869,16.833, NaN,24.121,   NaN,16.43,1013.78,79.57,16.72,18.1,20.7,5.2,5.5,309.4,312.3,3.6,4.0,NaN, NaN,19.8,281.5,279.5,1114129436,1114129435,1,4.4,001435,001435,280.6,33.491305,-117.761008,4.30,NaN,NaN,17.584, NaN,NaN,NaN, NaN, NaN
20050422,002424,638497,33.491508,-117.761925,4.5,17.571,33.357,43.556,1793.14,0.0,1.822,16.887,16.851, NaN,24.118,   NaN,16.34,1013.74,79.54,16.65,20.6,22.6,5.8,6.2,314.3,316.0,3.8,4.2,NaN, NaN,18.9,282.2,281.4,1114129465,1114129465,1,5.1,001464,001465,282.5,33.491435,-117.761815,4.91,NaN,NaN,17.575, NaN,NaN,NaN, NaN, NaN
20050422,002455,638528,33.491676,-117.762798,4.6,17.568,33.344,43.539,1795.78,0.0,1.841,16.904,16.866, NaN,24.108,   NaN,16.35,1013.69,79.73,16.67,19.3,21.9,6.0,6.3,315.2,318.0,3.6,4.0,NaN, NaN,19.1,281.9,281.0,1114129496,1114129495,1,5.4,001495,001495,282.6,33.491593,-117.762660,5.25,NaN,NaN,17.572, NaN,NaN,NaN, NaN, NaN
20050422,002525,638558,33.491853,-117.763680,4.4,17.578,33.321,43.522,1798.56,0.0,1.897,16.916,16.878, NaN,24.089,   NaN,16.36,1013.71,79.83,16.68,16.8,18.6,6.0,6.4,312.7,314.3,3.4,3.9,NaN, NaN,19.8,284.5,280.7,1114129526,1114129525,1,6.0,001525,001525,283.5,33.491766,-117.763543,5.38,NaN,NaN,17.582, NaN,NaN,NaN, NaN, NaN
20050422,002555,638588,33.492091,-117.764796,4.5,17.588,33.303,43.510,1796.85,0.0,1.803,16.933,16.896, NaN,24.072,   NaN,16.39,1013.70,79.76,16.70,14.3,15.1,6.4,6.7,309.9,310.4,3.4,3.7,NaN, NaN,18.5,282.5,282.2,1114129556,1114129556,1,8.2,001555,001556,283.5,33.492015,-117.764711,7.43,NaN,NaN,17.592, NaN,NaN,NaN, NaN, NaN
20050422,002625,638618,33.492406,-117.766191,4.6,17.599,33.284,43.498,1787.88,0.0,1.859,16.949,16.913, NaN,24.055,   NaN,16.38,1013.59,79.71,16.68,13.4,14.7,7.3,7.5,310.9,312.7,3.5,3.8,NaN, NaN,19.5,287.2,285.3,1114129586,1114129585,1,8.9,001585,001585,284.0,33.492313,-117.766066,8.81,NaN,NaN,17.603, NaN,NaN,NaN, NaN, NaN
20050422,002655,638648,33.492765,-117.767773,4.5,17.607,33.273,43.493,1792.61,0.0,1.765,16.952,16.916, NaN,24.045,   NaN,16.38,1013.70,79.83,16.69,15.8,16.9,8.0,8.4,319.1,319.1,3.7,4.1,NaN, NaN,19.2,285.3,286.2,1114129616,1114129615,1,10.4,001615,001615,284.6,33.492670,-117.767650,10.02,NaN,NaN,17.611, NaN,NaN,NaN, NaN, NaN
20050422,002725,638678,33.493151,-117.769438,4.5,17.619,33.260,43.490,1781.93,0.0,1.708,16.958,16.922, NaN,24.032,   NaN,16.32,1013.56,79.77,16.67,15.8,16.4,8.4,8.7,321.1,320.5,3.6,4.0,NaN, NaN,18.3,284.3,285.8,1114129646,1114129645,1,10.6,001645,001645,284.0,33.493058,-117.769315,10.31,NaN,NaN,17.623, NaN,NaN,NaN, NaN, NaN
20050422,002755,638708,33.493545,-117.771138,4.6,17.623,33.256,43.488,1783.00,0.0,1.727,16.965,16.928, NaN,24.028,   NaN,16.31,1013.61,79.77,16.64,13.4,14.8,8.6,8.9,317.0,318.3,3.5,3.9,NaN, NaN,18.9,285.9,285.6,1114129676,1114129675,1,10.6,001675,001675,284.3,33.493458,-117.771011,10.47,NaN,NaN,17.627, NaN,NaN,NaN, NaN, NaN
20050422,002825,638738,33.493943,-117.772836,4.6,17.637,33.246,43.490,1781.92,0.0,1.614,16.972,16.938, NaN,24.017,   NaN,16.30,1013.59,79.84,16.65,12.7,14.5,8.6,9.1,315.2,317.1,3.4,4.0,NaN, NaN,18.2,284.8,285.8,1114129706,1114129705,1,10.7,001705,001705,284.3,33.493835,-117.772693,10.46,NaN,NaN,17.641, NaN,NaN,NaN, NaN, NaN
20050422,002856,638769,33.494345,-117.774540,4.4,17.644,33.243,43.493,1775.14,0.0,1.557,16.980,16.943, NaN,24.013,   NaN,16.28,1013.65,79.73,16.64,11.4,13.6,8.7,8.9,312.0,316.2,3.4,3.7,NaN, NaN,18.7,285.4,286.3,1114129736,1114129736,1,10.4,001735,001736,284.0,33.494256,-117.774463,10.65,NaN,NaN,17.648, NaN,NaN,NaN, NaN, NaN
20050422,002925,638798,33.494736,-117.776240,4.5,17.652,33.240,43.497,1767.86,0.0,1.501,16.985,16.950, NaN,24.009,   NaN,16.26,1013.58,79.66,16.61,11.2,13.7,8.7,8.9,311.0,316.3,3.5,3.7,NaN, NaN,17.9,286.0,285.2,1114129766,1114129765,1,10.5,001765,001765,284.0,33.494643,-117.776108,10.44,NaN,NaN,17.656, NaN,NaN,NaN, NaN, NaN
20050422,002955,638828,33.495126,-117.777943,4.3,17.657,33.242,43.505,1768.07,0.0,1.463,16.992,16.957, NaN,24.009,   NaN,16.26,1013.63,79.63,16.61,12.3,14.6,8.7,9.0,313.7,317.6,3.5,3.9,NaN, NaN,18.1,286.1,284.0,1114129796,1114129795,1,10.7,001795,001795,284.5,33.495041,-117.777810,10.45,NaN,NaN,17.661, NaN,NaN,NaN, NaN, NaN
20050422,003025,638858,33.495528,-117.779648,4.5,17.659,33.245,43.511,1760.05,0.0,1.444,16.994,16.961, NaN,24.011,   NaN,16.31,1013.58,79.86,16.64,14.1,15.7,8.6,9.0,319.0,320.2,3.5,4.0,NaN, NaN,18.0,283.8,283.9,1114129826,1114129825,1,10.6,001825,001825,284.3,33.495435,-117.779523,10.45,NaN,NaN,17.663, NaN,NaN,NaN, NaN, NaN
20050422,003055,638888,33.495930,-117.781355,4.5,17.663,33.248,43.517,1751.73,0.0,1.425,16.991,16.956, NaN,24.012,   NaN,16.32,1013.53,79.88,16.67,13.1,14.6,8.5,8.7,317.2,319.3,3.3,3.6,NaN, NaN,17.9,286.1,285.1,1114129856,1114129855,1,10.7,001855,001855,284.0,33.495821,-117.781221,10.41,NaN,NaN,17.667, NaN,NaN,NaN, NaN, NaN
20050422,003124,638917,33.496325,-117.783056,4.5,17.668,33.249,43.523,1751.92,0.0,1.369,16.979,16.944, NaN,24.012,   NaN,16.31,1013.56,80.07,16.67,11.0,13.2,8.5,8.5,311.9,317.7,3.2,3.3,NaN, NaN,18.5,285.4,285.0,1114129885,1114129885,1,10.5,001885,001885,284.1,33.496221,-117.782926,10.49,NaN,NaN,17.672, NaN,NaN,NaN, NaN, NaN
20050422,003155,638948,33.496725,-117.784761,4.5,17.671,33.249,43.527,1754.76,0.0,1.293,16.977,16.941, NaN,24.011,   NaN,16.25,1013.49,79.97,16.65,9.2,12.5,8.7,8.6,306.5,315.1,3.4,3.4,NaN, NaN,18.8,286.6,286.4,1114129916,1114129915,1,10.7,001915,001915,284.1,33.496603,-117.784623,10.47,NaN,NaN,17.675, NaN,NaN,NaN, NaN, NaN
20050422,003224,638977,33.497106,-117.786411,4.5,17.675,33.251,43.532,1748.27,0.0,1.255,16.976,16.940, NaN,24.012,   NaN,16.22,1013.53,80.11,16.58,8.1,11.2,8.8,8.7,303.5,311.4,3.4,3.5,NaN, NaN,18.3,284.9,285.0,1114129945,1114129945,1,10.7,001944,001945,284.3,33.497015,-117.786345,10.52,NaN,NaN,17.679, NaN,NaN,NaN, NaN, NaN
20050422,003255,639008,33.497518,-117.788186,4.5,17.676,33.254,43.538,1744.13,0.0,1.180,16.970,16.937, NaN,24.014,   NaN,16.20,1013.52,80.09,16.56,7.2,10.0,8.7,8.8,301.3,308.4,3.3,3.5,NaN, NaN,18.2,285.0,285.6,1114129976,1114129976,1,10.7,001975,001976,284.3,33.497450,-117.788120,10.61,NaN,NaN,17.680, NaN,NaN,NaN, NaN, NaN
20050422,003325,639038,33.497916,-117.789908,4.6,17.671,33.262,43.542,1738.85,0.0,1.218,16.956,16.920, NaN,24.021,   NaN,16.19,1013.48,80.24,16.55,6.8,9.8,8.8,8.8,300.2,307.9,3.3,3.4,NaN, NaN,17.4,287.5,282.9,1114130006,1114130005,1,10.6,002005,002005,284.3,33.497835,-117.789785,10.45,NaN,NaN,17.675, NaN,NaN,NaN, NaN, NaN
20050422,003356,639069,33.498316,-117.791620,4.4,17.652,33.282,43.547,1742.06,0.0,1.104,16.941,16.903, NaN,24.041,   NaN,16.24,1013.55,80.57,16.60,7.7,10.2,8.7,8.8,302.4,308.6,3.3,3.4,NaN, NaN,18.2,286.5,286.4,1114130036,1114130036,1,10.9,002035,002036,284.5,33.498238,-117.791550,10.51,NaN,NaN,17.656, NaN,NaN,NaN, NaN, NaN
20050422,003425,639098,33.498716,-117.793333,4.6,17.654,33.282,43.548,1738.86,0.0,1.142,16.923,16.886, NaN,24.040,   NaN,16.23,1013.52,80.64,16.63,6.3,8.8,8.7,9.0,298.7,304.5,3.3,3.7,NaN, NaN,17.3,285.0,286.0,1114130066,1114130065,1,10.8,002065,002065,284.0,33.498633,-117.793205,10.61,NaN,NaN,17.658, NaN,NaN,NaN, NaN, NaN
20050422,003455,639128,33.499120,-117.795048,4.7,17.652,33.284,43.549,1732.86,0.0,1.104,16.903,16.863, NaN,24.042,   NaN,16.16,1013.40,80.66,16.56,4.8,7.7,8.9,9.2,294.7,301.2,3.4,3.8,NaN, NaN,18.0,286.5,285.9,1114130096,1114130095,1,10.8,002095,002095,284.2,33.499040,-117.794918,10.63,NaN,NaN,17.656, NaN,NaN,NaN, NaN, NaN
20050422,003525,639158,33.499525,-117.796775,4.5,17.652,33.282,43.547,1731.56,0.0,1.086,16.861,16.821, NaN,24.041,   NaN,16.12,1013.54,80.72,16.49,4.6,8.0,9.0,9.3,293.5,301.3,3.5,3.9,NaN, NaN,17.7,286.1,285.2,1114130126,1114130125,1,10.9,002125,002125,284.5,33.499450,-117.796645,10.65,NaN,NaN,17.656, NaN,NaN,NaN, NaN, NaN
20050422,003555,639188,33.499936,-117.798498,4.3,17.643,33.289,43.546,1729.41,0.0,1.086,16.813,16.772, NaN,24.049,   NaN,16.10,1013.45,80.76,16.47,6.0,9.4,9.2,9.3,296.7,304.9,3.7,3.9,NaN, NaN,18.7,286.9,283.6,1114130156,1114130155,1,10.8,002155,002155,285.9,33.499840,-117.798371,10.57,NaN,NaN,17.647, NaN,NaN,NaN, NaN, NaN
20050422,003626,639219,33.500566,-117.800086,4.6,17.621,33.304,43.543,1726.05,0.0,1.048,16.760,16.718, NaN,24.066,   NaN,16.03,1013.49,80.36,16.41,5.1,7.9,9.2,9.3,300.9,307.9,3.7,3.9,NaN, NaN,18.5,299.0,300.3,1114130186,1114130186,1,10.8,002185,002186,298.1,33.500460,-117.800035,10.30,NaN,NaN,17.625, NaN,NaN,NaN, NaN, NaN